AKST,Max TemperatureF,Mean TemperatureF,Min TemperatureF,Max Dew PointF,MeanDew PointF,Min DewpointF,Max Humidity, Mean Humidity, Min Humidity, Max Sea Level PressureIn, Mean Sea Level PressureIn, Min Sea Level PressureIn, Max VisibilityMiles, Mean VisibilityMiles, Min VisibilityMiles, Max Wind SpeedMPH, Mean Wind SpeedMPH, Max Gust SpeedMPH,PrecipitationIn, CloudCover, Events, WindDirDegrees
2013-2-1,45,42,39,43,41,37,100,92,85,30.17,30.13,30.08,10,9,2,6,2,,0.24,8,Rain,61
2013-2-2,46,44,41,43,41,37,96,89,81,30.07,30.00,29.96,10,9,4,10,4,22,0.38,8,Rain,188
2013-2-3,42,38,35,38,36,33,100,90,82,29.95,29.85,29.75,10,9,4,8,5,16,0.73,7,Rain,197
2013-2-4,37,34,32,35,32,30,100,90,79,29.94,29.78,29.40,10,8,2,20,5,30,0.08,5,Rain,28
2013-2-5,42,38,35,38,36,33,93,87,79,29.43,29.37,29.29,10,10,10,20,12,28,0.02,8,Rain,34
2013-2-6,44,37,30,37,35,28,96,87,76,29.75,29.61,29.44,10,10,10,10,6,17,0.03,6,Rain,31
2013-2-7,39,34,28,38,33,27,100,94,87,30.01,29.89,29.75,10,7,0,8,1,,0.17,8,Fog-Rain,190
2013-2-8,42,40,37,43,39,36,100,97,87,30.16,30.00,29.88,10,6,1,9,4,23,0.80,8,Rain,184
2013-2-9,45,41,37,43,39,37,100,93,79,30.22,30.19,30.17,10,9,2,7,2,,0.02,8,Rain,179
2013-2-10,44,42,39,42,39,36,97,89,80,30.14,30.10,30.06,10,9,3,10,7,23,0.49,8,Rain,190
2013-2-11,39,37,35,37,35,34,100,93,89,30.06,29.94,29.72,10,8,4,7,4,,1.06,8,Rain,47
2013-2-12,41,36,30,35,33,29,97,87,70,30.19,29.83,29.62,10,10,7,8,3,20,0.27,6,Rain,1
2013-2-13,42,36,30,36,32,28,100,88,67,30.28,30.22,30.12,10,8,1,7,1,,0.04,7,Rain,299
2013-2-14,48,42,39,45,41,34,100,91,79,30.16,30.09,30.01,10,8,2,12,4,18,0.85,8,Rain,125
2013-2-15,48,42,37,46,41,37,100,93,82,30.02,29.93,29.88,10,6,2,14,7,25,0.94,8,Rain,198
2013-2-16,44,40,35,41,36,31,100,91,79,30.22,30.11,29.99,10,9,2,12,2,20,0.09,8,Rain,220
2013-2-17,39,37,35,36,33,29,93,84,70,30.20,29.92,29.73,10,10,6,9,3,,0.15,8,Rain-Snow,145
2013-2-18,44,40,36,36,35,34,93,84,70,29.83,29.72,29.67,10,10,10,10,3,,0.00,7,Rain,38
2013-2-19,43,38,33,38,35,31,96,89,76,29.91,29.83,29.66,10,10,4,7,2,,0.07,7,Rain,217
2013-2-20,39,37,35,36,34,33,93,89,81,29.66,29.54,29.32,10,9,2,10,5,23,0.46,8,Rain,188
2013-2-21,39,36,33,36,34,30,100,91,79,29.51,29.38,29.01,10,8,1,9,3,20,0.59,8,Rain-Snow,190
2013-2-22,42,38,33,39,35,28,100,90,65,29.73,29.17,28.91,10,9,2,10,5,18,0.46,8,Rain-Snow,238
2013-2-23,37,35,33,35,33,29,97,88,73,29.88,29.81,29.73,10,9,2,12,4,17,0.24,7,Rain-Snow,194
2013-2-24,42,36,30,36,33,28,100,89,67,29.86,29.82,29.75,10,10,3,6,2,,0.08,5,Rain,197
2013-2-25,41,34,28,36,33,28,100,87,70,29.97,29.91,29.78,10,10,10,7,1,,0.04,6,Rain,39
2013-2-26,41,37,33,37,34,32,100,86,73,29.77,29.65,29.59,10,9,1,10,4,22,0.34,8,Rain-Snow,225
2013-2-27,41,38,35,37,35,32,93,87,73,29.83,29.70,29.57,10,9,3,10,5,22,0.49,8,Rain,186
2013-2-28,42,40,37,40,36,32,96,88,67,29.93,29.70,29.45,10,8,2,12,4,18,0.48,7,Rain,186